Regional Weather Roundup
Issued by NWS

Home | Current Version | Previous Version | Text Only | Print | Product List | Glossary On
Versions: 1 2 3 4 5 6 7 8 9 10 11 12 13 14 15 16 17 18 19 20 21 22 23 24 25 26 27 28 29 30 31 32 33 34 35 36 37 38 39 40 41 42 43 44 45 46 47 48 49 50
000
ASUS43 KBIS 212120
RWRND

NORTH DAKOTA REGIONAL WEATHER ROUNDUP
NATIONAL WEATHER SERVICE BISMARCK ND
400 PM CDT THU AUG 21 2014

NOTE: "FAIR" INDICATES FEW OR NO CLOUDS BELOW 12,000 FEET WITH NO
SIGNIFICANT WEATHER AND/OR OBSTRUCTIONS TO VISIBILITY.


NDZ001>003-009>011-017-212200-
NORTHWEST NORTH DAKOTA

CITY           SKY/WX    TMP DP  RH WIND       PRES   REMARKS
WILLISTON      PTSUNNY   72  58  61 N9        29.96S
MINOT          PTSUNNY   76  61  59 NW12      29.88S
MINOT AFB      SUNNY     78  62  57 NW12      29.88R
$$

NDZ018>021-031>035-040>046-212200-
SOUTHWEST NORTH DAKOTA

CITY           SKY/WX    TMP DP  RH WIND       PRES   REMARKS
BISMARCK       MOSUNNY   81  64  56 N10G21    29.88R
DICKINSON      MOSUNNY   79  59  50 N9        29.93S
GARRISON         N/A     76  63  64 N15G22    29.90R
HETTINGER ARPT SUNNY     81  57  43 NW5       29.94S
$$

NDZ004>008-012>016-024-026-027-054-212200-
NORTHEAST NORTH DAKOTA

CITY           SKY/WX    TMP DP  RH WIND       PRES   REMARKS
GRAND FORKS    CLOUDY    75  69  81 S5        29.79S
GRND FRKS AFB  CLOUDY    76  71  85 SE6       29.81S
DEVILS LAKE    PTSUNNY   75  66  73 N7        29.81S
$$

NDZ022-023-025-028>030-036>039-047>053-212200-
SOUTHEAST NORTH DAKOTA

CITY           SKY/WX    TMP DP  RH WIND       PRES   REMARKS
FARGO          CLOUDY    75  69  81 SE7       29.79R
JAMESTOWN      MOSUNNY   79  67  66 NW12      29.82R
$$




USA.gov is the U.S. government's official web portal to all federal, state and local government web resources and services.